Theta_e
308 307 308 309 308 309 308 307 308 308 309 311 310 311 311 311 311 307 307 309 309 309 310 309 309 310 306 306 305 304 302 301 299 299 298 298 298 298 298 298 298 297 295 294
309 308 309 308 307 308 309 310 309 310 309 307 308 309 309 308 310 311 311 309 309 309 308 307 306 306 307 307 306 303 302 300 299 299 298 298 297 297 298 298 298 297 296 294
310 310 309 307 308 309 308 309 310 310 308 306 307 310 309 307 308 309 309 309 309 309 309 308 303 303 305 305 304 303 302 301 299 299 298 298 297 296 296 296 297 297 296 294
308 308 309 308 308 308 310 308 309 310 310 312 309 312 309 309 309 307 309 309 308 308 308 307 305 300 303 305 305 303 301 300 299 299 298 297 297 296 295 295 296 296 295 294
307 309 309 309 310 308 310 309 308 308 307 309 309 309 311 308 307 308 308 309 308 308 306 307 305 302 306 305 304 303 300 299 298 298 298 297 297 296 297 295 295 295 295 294
307 306 307 308 307 306 308 310 309 306 307 311 310 310 311 308 308 309 308 307 307 308 306 303 302 303 303 303 302 300 299 297 298 297 297 297 296 296 296 295 294 294 294 294
305 306 306 307 309 308 309 309 310 310 310 313 307 309 312 310 307 308 309 307 305 303 302 301 300 299 299 298 298 297 296 295 296 297 297 296 296 296 296 295 294 292 292 292
307 312 306 306 308 308 308 308 311 309 311 313 307 311 314 308 307 306 304 304 303 302 302 300 300 299 298 297 296 296 295 295 296 296 295 296 296 296 294 295 294 294 293 292
306 308 306 305 307 307 306 308 308 310 298 305 311 310 312 307 307 308 307 305 303 301 300 299 298 297 298 297 295 295 295 295 296 295 295 295 295 295 294 294 294 294 294 293
308 311 307 305 306 306 306 306 310 308 313 309 311 310 312 311 312 311 307 305 302 301 300 300 300 298 298 298 298 297 296 297 296 295 295 294 294 294 294 294 294 293 293 292
311 313 315 311 309 310 306 307 307 308 312 316 317 315 314 312 307 306 303 302 302 303 303 301 300 300 299 299 299 298 297 296 296 296 295 294 294 294 294 293 293 293 293 292
310 315 319 316 310 305 307 308 308 312 313 311 314 315 313 313 311 310 311 309 304 302 302 301 300 301 301 299 300 299 298 297 297 296 295 295 294 293 293 293 293 292 292 291
312 314 319 317 313 310 313 313 312 312 312 314 314 314 311 311 311 311 310 306 305 304 304 303 300 299 299 301 302 300 299 299 296 295 295 294 293 292 292 292 291 291 290 291
314 316 318 318 315 315 313 312 312 314 317 316 315 314 313 312 311 311 311 310 309 304 302 299 299 298 298 298 299 299 299 299 297 296 295 293 292 293 292 291 290 290 289 289
310 315 315 313 313 312 312 313 315 316 315 316 316 315 314 313 311 306 301 301 300 300 299 298 297 296 295 294 294 295 296 297 297 298 294 293 292 291 291 290 290 289 289 288
303 305 306 307 307 306 310 312 313 312 311 313 314 314 301 297 294 293 293 293 293 293 294 294 293 294 294 294 293 293 294 294 295 295 294 295 293 291 290 289 289 288 287 286
300 302 302 304 302 301 301 302 303 305 305 304 307 297 295 293 292 291 292 291 291 292 292 293 292 292 292 293 293 292 292 292 292 292 293 293 292 291 289 289 288 286 285 284
297 297 297 299 296 295 297 298 296 299 296 296 295 293 294 292 291 290 293 290 290 292 292 292 291 291 291 291 291 291 290 290 290 290 290 291 291 290 288 287 286 285 284 283
295 297 290 292 291 297 299 293 291 291 295 293 292 291 291 291 290 289 289 290 290 290 290 290 290 290 291 290 290 290 289 289 289 289 289 289 290 289 287 285 284 283 283 281
293 296 298 297 296 296 295 291 292 290 295 292 292 291 291 290 289 288 289 289 289 289 289 289 289 289 289 289 289 289 289 289 289 289 287 288 289 287 285 284 283 282 282 281
282 279 285 285 295 294 291 290 288 291 289 292 291 291 291 289 289 289 288 288 287 287 287 287 287 287 287 287 288 288 289 289 289 290 289 286 287 286 285 283 282 281 280 280
286 282 280 279 281 288 289 288 288 287 290 291 290 288 287 287 286 285 285 285 284 283 283 283 283 283 284 284 285 286 288 288 289 289 289 286 285 284 283 282 281 280 279 278
287 287 285 287 286 290 289 289 289 289 290 289 287 286 285 284 283 283 282 282 281 281 281 281 281 282 281 280 281 283 283 283 285 286 286 286 284 282 282 281 279 278 278 278
289 288 290 287 289 289 288 288 287 290 287 286 285 283 283 282 282 282 281 280 280 279 279 279 278 277 277 278 277 277 277 279 282 285 285 284 283 281 280 280 279 278 278 278
288 287 287 288 288 288 288 288 287 286 285 283 282 281 281 281 280 279 278 278 278 278 277 277 275 275 275 274 274 274 274 275 275 278 281 283 281 280 279 279 278 278 278 278
289 289 288 288 289 288 288 288 284 284 282 280 279 279 280 278 278 277 276 276 276 275 274 274 273 272 271 270 270 270 270 271 272 274 275 280 281 280 278 278 277 279 279 279
Wind_Speed
3 4 10 23 17 6 4 6 8 10 10 3 10 15 16 19 15 13 16 20 21 21 26 26 32 33 32 36 39 43 45 47 45 44 44 43 45 45 43 42 40 38 35 33
1 11 21 1 3 8 11 16 14 18 17 5 17 24 20 12 20 24 23 22 23 20 20 19 17 25 32 37 42 42 45 45 48 44 46 31 35 42 45 44 42 40 38 36
16 8 11 8 6 7 9 8 17 16 7 6 10 20 15 14 19 24 24 22 21 21 20 20 9 22 30 34 38 42 45 46 47 43 37 31 28 25 36 40 43 42 40 37
9 7 10 5 6 13 20 13 14 13 3 11 2 15 7 10 16 10 19 18 15 18 15 17 12 10 26 35 36 37 40 45 46 47 45 42 35 28 35 36 46 45 42 39
9 4 4 7 15 10 11 5 7 4 5 5 5 5 1 5 7 14 16 17 15 15 13 16 12 13 30 32 35 38 38 40 42 48 47 48 39 35 32 39 42 44 43 41
11 2 6 8 6 10 1 1 2 4 3 10 13 10 3 6 8 5 7 10 11 16 11 9 8 13 19 22 27 32 38 40 42 45 46 48 40 37 36 37 38 43 44 44
2 5 3 5 4 2 5 3 4 4 1 11 6 7 15 7 8 8 11 12 10 9 9 12 9 8 12 20 27 30 32 33 41 47 49 48 44 45 45 44 42 41 43 48
3 13 7 5 9 8 8 11 6 8 8 17 5 13 14 8 10 7 4 5 8 10 10 10 10 7 8 13 21 26 31 29 37 43 44 44 44 43 41 43 41 44 45 47
4 9 2 4 2 7 3 6 5 1 2 1 10 18 19 6 7 2 6 4 6 8 9 10 9 6 6 11 13 19 24 29 37 41 39 43 45 43 41 40 43 44 44 44
2 12 4 0 2 3 7 2 2 1 3 9 15 10 18 15 19 19 6 6 7 6 8 8 8 8 9 12 17 24 27 33 34 38 42 40 41 45 45 43 44 44 43 42
4 3 10 5 6 10 1 4 5 1 5 14 18 15 26 18 10 6 7 8 8 9 9 8 8 9 11 14 19 23 28 32 34 38 42 41 43 46 47 47 47 47 45 44
9 2 11 12 5 5 4 7 7 9 9 11 17 21 28 28 20 16 23 15 6 6 7 7 6 8 14 17 19 25 26 33 41 42 40 44 43 43 44 47 50 49 48 45
6 5 10 12 4 1 6 12 15 17 16 22 21 18 15 23 31 26 21 7 9 8 9 8 8 8 9 16 22 25 29 37 33 33 37 39 41 40 45 46 45 48 47 47
2 17 19 18 21 15 10 8 11 18 13 20 21 27 23 25 28 32 36 18 18 13 17 17 16 14 18 22 23 25 29 30 32 34 39 40 39 48 48 40 41 46 46 47
2 7 8 11 10 13 20 22 25 28 26 24 23 27 24 26 22 19 19 19 18 18 17 17 17 15 16 25 26 24 22 23 25 33 34 37 39 38 37 38 43 45 46 47
2 6 13 21 24 20 21 17 17 18 18 21 24 30 18 17 19 20 16 19 18 17 18 17 18 19 17 25 29 34 32 31 28 28 36 39 37 37 38 37 39 41 42 42
6 5 6 21 23 21 16 23 23 23 17 13 13 8 12 17 20 22 12 18 19 20 20 18 17 17 23 28 31 29 33 37 31 22 30 33 33 35 36 35 37 37 37 37
16 17 8 16 15 12 9 3 7 4 9 9 9 12 12 13 14 11 9 18 17 16 16 17 16 22 29 31 31 34 36 34 31 29 25 25 26 27 28 32 34 33 35 39
14 11 4 3 6 13 11 8 5 7 3 5 5 6 9 10 12 10 9 11 15 13 14 16 23 27 27 30 30 31 33 32 31 28 28 27 23 23 25 28 28 29 30 30
4 10 8 5 7 5 3 4 6 7 7 6 4 5 6 9 10 14 11 14 14 14 20 22 27 29 26 29 31 31 32 28 25 29 32 25 22 25 25 27 28 27 27 26
3 3 4 5 6 5 3 5 2 2 5 4 5 4 6 7 8 17 16 13 14 17 21 26 25 26 28 29 28 30 30 28 31 37 31 25 20 20 27 25 23 22 23 21
4 2 3 1 0 8 3 5 0 6 4 4 5 5 5 7 10 13 15 15 14 15 19 21 21 23 27 29 27 26 27 32 37 37 32 23 17 18 20 22 21 23 23 22
4 6 5 8 6 6 10 7 9 7 9 4 4 6 4 9 11 12 13 14 15 16 20 22 20 23 28 27 27 27 30 34 37 34 31 28 22 18 19 21 19 18 21 18
8 15 7 1 11 15 11 14 7 7 7 6 5 5 5 10 12 13 14 15 14 18 19 21 21 22 26 25 28 32 33 31 33 33 31 25 23 21 23 23 22 22 22 22
9 3 7 13 17 16 17 15 12 7 6 3 4 6 9 9 14 13 14 16 14 19 25 24 24 25 29 29 30 28 30 30 34 33 31 25 20 21 21 24 25 26 27 30
10 19 13 15 20 15 15 10 3 5 4 2 7 12 10 10 15 14 16 17 19 21 28 26 28 30 36 33 33 30 28 28 30 31 29 26 20 18 21 20 20 28 26 24
Wind_Direction
202 141 207 221 204 235 193 227 234 255 264 225 236 251 254 268 277 256 261 265 264 263 266 262 247 246 229 227 223 224 218 215 208 203 202 210 212 215 216 218 218 215 214 213
84 216 224 237 162 219 235 254 261 270 265 207 269 265 266 256 260 262 260 259 261 261 271 268 242 228 221 222 222 216 215 208 206 203 205 203 205 215 218 217 218 217 215 214
224 219 221 207 217 242 224 227 255 264 306 237 280 275 249 250 249 263 264 255 267 261 266 272 241 219 219 215 215 215 213 209 205 202 196 198 201 212 216 217 217 216 216 217
245 238 209 168 213 212 264 220 254 263 341 277 2 297 257 238 249 230 261 269 251 266 256 254 244 214 219 224 224 218 211 205 202 201 197 194 197 200 213 212 217 216 216 217
244 198 165 194 228 168 253 180 221 200 200 315 179 254 229 170 246 251 253 259 263 251 253 266 262 223 235 231 223 213 209 205 199 200 199 196 197 204 209 210 215 216 214 217
255 345 177 219 207 181 49 43 70 56 122 263 199 207 343 166 218 273 276 264 259 271 282 271 293 264 248 233 217 209 197 198 199 201 203 204 202 199 198 205 208 214 214 215
323 221 235 178 248 140 129 72 307 315 11 254 178 211 248 266 225 211 248 270 316 319 303 305 293 257 236 209 197 198 195 193 195 201 203 207 208 209 207 204 203 203 209 214
259 291 189 171 199 196 186 166 178 230 263 282 124 260 275 229 236 255 351 276 311 319 332 299 271 284 263 221 204 191 192 194 201 204 204 207 212 215 214 214 209 211 211 214
207 263 227 199 172 161 178 176 199 288 11 330 263 275 288 260 294 348 303 347 311 322 320 317 321 300 269 222 213 212 206 204 208 211 211 211 211 213 216 219 219 220 220 219
313 296 211 331 201 193 176 180 62 359 208 257 273 273 263 283 286 284 254 277 294 313 304 338 335 303 279 249 221 221 222 224 221 218 217 217 216 216 223 224 224 223 224 222
95 262 259 349 204 231 163 228 200 200 197 248 261 266 268 273 266 243 269 275 299 305 328 327 323 308 259 235 234 229 226 229 229 229 225 221 222 224 223 225 227 227 224 222
202 271 256 255 250 177 169 230 210 233 251 236 253 253 279 280 286 267 277 291 276 276 284 309 287 278 273 253 246 241 238 236 237 234 229 229 226 224 221 223 227 225 223 222
190 219 279 288 278 302 198 228 234 244 262 260 263 265 269 291 293 287 291 262 274 265 278 285 292 272 272 269 267 258 251 248 244 238 237 231 226 223 224 223 223 224 222 222
184 256 252 258 266 297 287 258 248 240 250 256 257 270 269 273 281 294 301 336 348 6 17 19 10 7 2 351 336 313 291 274 268 253 237 227 223 227 225 220 220 224 223 220
356 273 272 289 300 311 312 303 288 271 266 262 271 278 284 281 310 353 7 7 18 13 9 2 348 340 342 349 345 339 338 324 298 269 249 242 238 229 222 221 222 223 222 221
13 281 309 288 286 283 276 272 273 281 283 277 277 276 11 15 11 9 12 11 7 0 352 346 338 335 339 340 340 341 338 329 324 279 250 251 241 235 224 216 215 215 213 213
259 259 272 275 281 299 280 262 271 273 279 321 302 10 3 5 358 343 18 0 349 343 340 337 337 335 334 333 332 329 328 326 326 308 275 257 246 229 221 213 211 206 205 205
253 258 252 267 288 260 258 18 44 15 65 34 58 34 9 341 323 339 334 348 337 342 335 332 332 330 328 329 329 327 327 326 326 329 315 287 258 242 229 216 207 202 200 203
223 246 266 230 214 270 298 15 18 19 2 55 1 7 329 327 312 319 333 347 324 325 323 313 314 311 310 319 321 321 321 323 326 330 330 314 276 247 229 214 206 203 197 199
155 210 228 294 290 265 161 240 218 272 241 221 207 296 314 336 335 309 332 321 309 316 315 316 312 310 313 318 319 318 316 318 320 328 325 321 298 261 237 227 213 206 200 200
2 348 192 247 266 276 235 304 302 64 277 127 164 220 267 293 275 288 307 301 301 300 305 306 309 306 311 313 318 312 309 309 311 321 329 318 295 264 252 235 219 207 196 191
159 179 233 16 93 279 319 352 114 232 245 206 209 236 252 268 285 287 296 300 302 304 306 305 304 302 304 309 312 306 304 309 307 310 313 302 282 261 245 231 208 197 188 177
254 204 241 190 216 281 314 251 255 258 256 225 237 239 264 283 282 288 292 298 301 303 305 304 295 299 301 302 304 301 302 311 307 300 294 294 281 255 239 217 195 175 179 183
245 245 235 355 261 263 258 268 258 226 218 242 227 230 236 266 277 284 290 291 296 299 301 307 305 297 295 298 297 295 302 306 303 304 284 273 260 240 225 214 208 191 189 195
238 134 228 256 271 270 271 262 261 212 246 263 291 287 283 271 277 285 284 286 289 292 297 300 298 296 291 296 294 294 296 299 295 295 291 278 246 233 220 215 206 213 208 202
239 245 248 254 268 265 277 293 154 235 214 261 286 292 285 286 287 293 286 286 292 295 296 296 294 295 296 299 292 291 292 291 290 290 286 285 253 234 224 219 217 221 228 220